Terminal Aerodrome Forecast
Issued by NWS Dodge City, KS

Home | Current Version | Previous Version | Graphics & Text | Print | Product List | Glossary Off
Versions: 1 2 3 4 5 6 7 8 9 10 11 12 13 14 15 16 17 18 19 20 21 22 23 24 25 26 27 28

000
FTUS43 KDDC 252320
TAFDDC
TAF
KDDC 252320Z 2600/2624 23008KT P6SM BKN150
     FM260600 32012KT P6SM BKN100
     FM261500 33018G27KT P6SM SKC=

USA.gov is the U.S. government's official web portal to all federal, state and local government web resources and services.